Sitka, AK

3:23 PM AKST on February 25, 2017 (GMT -0900)
Sitka Rocky Gutierrez

Weather History for PASI - June, 2013

Change the Weather History Date:

Friday, June 28, 2013

  Actual Average Record
Temperature  
Mean Temperature 58 °F -  
Max Temperature 64 °F 58 °F 68 °F (2002)
Min Temperature 55 °F 48 °F 23 °F (1971)
Degree Days  
Heating Degree Days 6    
Growing Degree Days 8 (Base 50)    
Moisture  
Dew Point 55 °F    
Average Humidity 88    
Maximum Humidity 93    
Minimum Humidity 83    
Precipitation  
Precipitation 0.02 in - - ()
Sea Level Pressure  
Sea Level Pressure 30.14 in    
Wind  
Wind Speed 3 mph (WSW)    
Max Wind Speed 10 mph    
Max Gust Speed -    
Visibility 10 miles    
Events Rain    
Averages and records for this station are not official NWS values.
T = Trace of Precipitation, MM = Missing Value Source: NWS Daily Summary

Daily Weather History Graph

Daily Weather History Graph

Search for Another Location

Airport or City:

Trip Planner

Search our weather history database for the weather conditions in past years. The results will help you decide how hot, cold, wet, or windy it might be!

Date:

Astronomy

Jun. 28, 2013 Rise Set
Actual Time 4:09 AM AKDT 9:59 PM AKDT
Civil Twilight 3:01 AM AKDT 11:07 PM AKDT
Nautical Twilight 1:37 AM AKDT 12:32 AM AKDT
Astronomical Twilight Sun does not rise Sun does not rise
Moon No Moon Rise 11:50 AM AKDT (6/28)
Length of Visible Light 20h 05m
Length of Day
17h 50m
Waning Gibbous, 65% of the Moon is Illuminated
Jun 28
Waning Gibbous
Jun 29
Last Quarter
Jul 7
New
Jul 15
First Quarter
Jul 22
Full

Hourly Weather History & Observations

Time (AKDT) Temp. Dew Point Humidity Pressure Visibility Wind Dir Wind Speed Gust Speed Precip Events Conditions
12:53 AM 55.9 °F 53.1 °F 90% 30.14 in 10.0 mi Calm Calm - N/A   Clear
1:53 AM 55.0 °F 52.0 °F 89% 30.15 in 10.0 mi Calm Calm - N/A   Partly Cloudy
2:53 AM 55.0 °F 52.0 °F 89% 30.16 in 10.0 mi Calm Calm - N/A   Mostly Cloudy
3:53 AM 55.9 °F 53.1 °F 90% 30.16 in 10.0 mi Calm Calm - N/A   Overcast
4:53 AM 57.0 °F 54.0 °F 89% 30.17 in 10.0 mi SSW 5.8 mph - N/A   Overcast
5:53 AM 57.0 °F 53.1 °F 87% 30.19 in 10.0 mi NNW 4.6 mph - N/A   Overcast
6:53 AM 57.9 °F 54.0 °F 87% 30.20 in 10.0 mi WNW 3.5 mph - 0.00 in   Overcast
7:53 AM 57.9 °F 54.0 °F 87% 30.20 in 10.0 mi Calm Calm - N/A   Overcast
8:53 AM 59.0 °F 54.0 °F 83% 30.20 in 10.0 mi Calm Calm - N/A   Overcast
9:53 AM 57.0 °F 55.0 °F 93% 30.20 in 8.0 mi NW 4.6 mph - 0.02 in Rain Light Rain
10:53 AM 59.0 °F 57.0 °F 93% 30.19 in 10.0 mi WNW 6.9 mph - 0.00 in Rain Light Rain
11:53 AM 62.1 °F 57.0 °F 84% 30.19 in 10.0 mi West 9.2 mph - 0.00 in   Mostly Cloudy
12:53 PM 61.0 °F 57.0 °F 87% 30.18 in 10.0 mi North - - N/A   Overcast
1:01 PM 60.8 °F - N/A% 30.18 in 10.0 mi SSW 10.4 mph - N/A   Overcast
1:53 PM 60.1 °F 55.0 °F 83% 30.18 in 10.0 mi WSW 8.1 mph - 0.00 in   Partly Cloudy
2:53 PM 61.0 °F 55.9 °F 83% 30.17 in 10.0 mi WSW 6.9 mph - N/A   Mostly Cloudy
3:53 PM 62.1 °F 57.0 °F 84% 30.15 in 10.0 mi SW 6.9 mph - 0.00 in   Scattered Clouds
4:53 PM 61.0 °F 57.0 °F 87% 30.13 in 10.0 mi SSW 4.6 mph - 0.00 in   Mostly Cloudy
5:53 PM 60.1 °F 55.9 °F 86% 30.11 in 10.0 mi SSW 5.8 mph - N/A   Mostly Cloudy
6:53 PM 61.0 °F 55.9 °F 83% 30.08 in 10.0 mi WSW 4.6 mph - N/A   Scattered Clouds
7:53 PM 61.0 °F 55.9 °F 83% 30.06 in 10.0 mi SW 3.5 mph - N/A   Mostly Cloudy
8:53 PM 59.0 °F 55.0 °F 87% 30.05 in 10.0 mi South 3.5 mph - N/A   Scattered Clouds
9:53 PM 57.9 °F 55.0 °F 90% 30.05 in 10.0 mi Calm Calm - N/A   Clear
10:53 PM 57.0 °F 55.0 °F 93% 30.04 in 10.0 mi Calm Calm - N/A   Partly Cloudy
11:53 PM 57.0 °F 55.0 °F 93% 30.04 in 10.0 mi Calm Calm - N/A   Overcast